[[{"header":{"parameterUnit":"m.s-1","parameterCategory":1,"la1":30.2991,"la2":30.254,"lo1":-89.0895,"lo2":-89.0444,"dy":0.0017,"dx":0.0017,"nx":28,"ny":28,"refTime":"2025-01-08T09:00:00:Z","depth":0,"parameterNumber":2,"parameterNumberName":"U-component_of_WINDS"},"data":[0,0,0,0,0,0,0,0,0,0,0,0,0,0,0,0,0,0,0,0,0,0,0,0,0,0,0,0,0,0,0,0,0,0,0,0,0,0,0,0,0,0,0,0,0,0,0,0,0,0,0,0,0,0,0,0,0,0,-5.734,-5.734,0,-5.7289,-5.7289,-5.7288,-5.7079,-5.7074,-5.7069,-5.7065,-5.7019,-5.7022,-5.7025,0,0,0,0,0,0,0,0,0,0,0,0,0,-5.7262,-5.7264,-5.734,-5.734,-5.7339,-5.729,-5.7289,-5.7288,-5.708,-5.7074,-5.7068,-5.7063,-5.7018,-5.7022,-5.7026,0,0,0,0,0,0,0,0,0,0,0,0,0,-5.7262,-5.7265,-5.734,-5.7229,-5.7218,-5.729,-5.7289,-5.7288,-5.7081,-5.7074,-5.7067,-5.706,-5.7016,-5.7021,-5.7026,-5.7202,0,0,-5.7041,-5.7043,0,0,0,0,0,0,0,0,-5.7263,-5.7265,-5.7246,-5.7237,-5.7225,-5.7183,-5.7244,-5.726,-5.7083,-5.7134,-5.7065,-5.7056,-5.708,-5.7079,-5.7086,-5.72,-5.7198,-5.7042,-5.7045,-5.7047,-5.7048,0,0,0,0,0,0,0,-5.7263,-5.7267,-5.732,-5.7246,-5.7233,-5.7183,-5.7175,-5.7246,-5.7148,-5.7129,-5.7113,-5.711,-5.7073,-5.7081,-5.7083,-5.7198,-5.7042,-5.7046,-5.7049,-5.7051,-5.7453,-5.7461,0,0,0,0,0,0,-5.7278,-5.7268,-5.7322,-5.7319,-5.7226,-5.7191,-5.7181,-5.7204,-5.7147,-5.7131,-5.7116,-5.71,-5.7077,-5.7077,-5.7081,-5.7282,-5.7047,-5.7051,-5.7054,-5.7446,-5.7455,-5.7463,0,0,0,0,0,0,-5.7277,-5.7285,-5.7324,-5.7289,-5.729,-5.72,-5.7227,-5.7207,-5.7215,-5.7137,-5.7119,-5.7143,-5.7071,-5.7074,-5.7173,-5.7277,-5.7054,-5.7058,-5.7437,-5.7448,-5.7459,-5.7688,0,0,0,0,0,0,-5.7276,-5.7286,-5.7351,-5.7292,-5.7293,-5.7417,-5.7233,-5.7211,-5.7224,-5.7202,-5.7157,-5.7143,-5.7065,-5.7167,-5.7178,-5.728,-5.7062,-5.7427,-5.7442,-5.7455,-5.767,-5.7705,-5.7736,0,0,0,0,0,-5.7273,-5.7419,-5.7355,-5.7363,-5.7372,-5.7423,-5.7423,-5.7329,-5.7233,-5.7298,-5.7248,-5.7145,-5.7265,-5.7179,-5.719,-5.7295,-5.742,-5.7438,-5.7454,-5.7656,-5.7699,-5.7735,0,0,0,0,0,0,-5.7494,-5.7409,-5.7337,-5.7467,-5.7454,-5.7387,-5.7466,-5.7378,-5.7393,-5.7373,-5.7257,-5.7249,-5.7365,-5.734,-5.7246,-5.7462,-5.7325,-5.7345,-5.7474,-5.7514,-5.7546,-5.755,-5.7066,0,0,0,0,0,-5.7558,-5.7604,-5.7528,-5.765,-5.7647,-5.7559,-5.7577,-5.7506,-5.7487,-5.7481,-5.7438,-5.7426,-5.7461,-5.7486,-5.7514,-5.7666,-5.7653,-5.7744,-5.7777,-5.7804,-5.7823,-5.79,-5.7939,-5.752,-5.752,-5.752,0,0,-5.769,-5.7649,-5.7686,-5.7694,-5.7674,-5.7726,-5.7555,-5.7618,-5.7656,-5.7491,-5.7581,-5.755,-5.7529,-5.7655,-5.7709,-5.7638,-5.7936,-5.7826,-5.7848,-5.7852,-5.7922,-5.7962,-5.7997,-5.7532,-5.753,-5.7528,0,0,-5.7957,-5.7931,-5.8029,-5.8013,-5.7985,-5.7925,-5.7949,-5.7896,-5.7868,-5.7956,-5.7834,-5.7878,-5.7941,-5.793,-5.7933,-5.8196,-5.8101,-5.8209,-5.8379,-5.8456,-5.8489,-5.8518,-5.8611,-5.8646,-5.8228,-5.8229,-5.8229,0,-5.8126,-5.8197,-5.8091,-5.8161,-5.8168,-5.802,-5.8118,-5.8109,-5.8093,-5.8102,-5.8023,-5.8097,-5.8072,-5.8193,-5.8257,-5.8265,-5.8289,-5.8213,-5.8493,-5.8521,-5.8546,-5.8633,-5.8669,-5.8242,-5.824,-5.8239,-5.8238,0,-5.8405,-5.8457,-5.8539,-5.8525,-5.8541,-5.8626,-5.8534,-5.8564,-5.8492,-5.8441,-5.8533,-5.8498,-5.8516,-5.8539,-5.847,-5.8651,-5.8608,-5.8513,-5.8372,-5.8601,-5.8681,-5.8713,-5.826,-5.8256,-5.8252,-5.8249,0,0,-5.881,-5.8734,-5.8766,-5.8757,-5.8715,-5.8754,-5.8833,-5.8847,-5.8875,-5.8869,-5.8932,-5.8988,-5.8899,-5.8903,-5.8831,-5.8899,-5.9109,-5.8795,-5.8793,-5.8854,-5.9305,-5.9376,-5.9416,-5.9046,-5.9052,-5.9057,-5.9306,0,-5.9063,-5.9189,-5.9096,-5.924,-5.9286,-5.9145,-5.9213,-5.9196,-5.9151,-5.9185,-5.9136,-5.9177,-5.9057,-5.9058,-5.9119,-5.907,-5.9198,-5.9051,-5.9104,-5.9107,-5.9112,-5.9458,-5.9533,-5.977,-5.9337,-5.9342,-5.9346,0,-5.9375,-5.938,-5.9528,-5.9474,-5.9491,-5.9553,-5.9558,-5.9593,-5.9571,-5.9533,-5.9538,-5.9448,-5.9522,-5.9385,-5.9486,-5.9389,-5.9405,-5.9385,-5.9391,-5.9392,-5.924,-5.9467,-5.9844,-5.9879,-5.9395,-5.9391,-5.9387,0,-5.9654,-5.9698,-5.9791,-5.9788,-5.9729,-5.9776,-5.9755,-5.9725,-5.974,-5.9746,-5.9754,-5.977,-5.9779,-5.9794,-5.9711,-5.9619,-5.9824,-5.9679,-5.9795,-5.9797,-5.9843,-5.9841,-6.0227,-5.9857,-5.9856,-5.9856,-5.9855,0,-5.9946,-6.0041,-5.9915,-5.9973,-6.0075,-5.9969,-6.0074,-6.0038,-6.0013,-6.0062,-5.9943,-5.9992,-5.988,-5.9919,-5.9855,-5.9948,-5.9954,-5.9926,-5.9908,-5.9935,-5.9939,-5.9944,-5.9925,-5.9865,-5.9863,-5.9861,-5.9859,0,-6.0274,-6.0193,-6.0285,-6.0221,-6.0207,-6.0286,-6.0232,-6.0283,-6.023,-6.0293,-6.0302,-6.022,-6.0258,-6.0177,-6.0206,-6.0163,-6.0294,-6.0251,-6.0301,-6.0288,-6.0407,-6.0396,-6.0808,-6.0856,-6.0458,-6.0461,-6.0465,0,-6.0465,-6.0534,-6.0477,-6.0499,-6.0483,-6.0522,-6.0535,-6.0434,-6.0453,-6.0433,-6.0487,-6.0515,-6.0532,-6.06,-6.0544,-6.0565,-6.052,-6.0663,-6.0523,-6.0549,-6.0521,-6.0517,-6.0523,-6.0692,-6.0697,-6.0701,-6.0704,0,-6.0811,-6.0767,-6.079,-6.0799,-6.0817,-6.082,-6.0815,-6.0841,-6.0733,-6.0761,-6.0797,-6.081,-6.0838,-6.0867,-6.0875,-6.0854,-6.0763,-6.0749,-6.0776,-6.0805,-6.083,-6.0817,-6.0378,-6.074,-6.0736,-6.0733,-6.0732,-6.073,-6.1075,-6.1129,-6.1097,-6.1126,-6.111,-6.1108,-6.1152,-6.1103,-6.1131,-6.1143,-6.1083,-6.1133,-6.1109,-6.1109,-6.1099,-6.1137,-6.1073,-6.1114,-6.1123,-6.1135,-6.1153,-6.0826,-6.1139,-6.1138,-6.1137,-6.1136,-6.1135,0,-6.1414,-6.1385,-6.1413,-6.1407,-6.1431,-6.1339,-6.1329,-6.1355,-6.1399,-6.1384,-6.1402,-6.1444,-6.1472,-6.1418,-6.1438,-6.1479,-6.1437,-6.1488,-6.1483,-6.1479,-6.121,-6.1183,-6.1521,-6.1521,-6.1521,-6.1521,-6.1521,-6.1521,-6.1592,-6.1679,-6.1632,-6.171,-6.1682,-6.1727,-6.1729,-6.1726,-6.1713,-6.1764,-6.1786,-6.1749,-6.1719,-6.1735,-6.1757,-6.174,-6.1753,-6.1818,-6.1787,-6.1536,-6.1499,-6.1463,-6.1437,-6.1822,-6.1822,-6.2052,-6.2054,-6.2056]},{"header":{"parameterUnit":"m.s-1","parameterCategory":1,"la1":30.2991,"la2":30.254,"lo1":-89.0895,"lo2":-89.0444,"dy":0.0017,"dx":0.0017,"nx":28,"ny":28,"refTime":"2025-01-08T09:00:00:Z","depth":0,"parameterNumber":3,"parameterNumberName":"V-component_of_WINDS"},"data":[0,0,0,0,0,0,0,0,0,0,0,0,0,0,0,0,0,0,0,0,0,0,0,0,0,0,0,0,0,0,0,0,0,0,0,0,0,0,0,0,0,0,0,0,0,0,0,0,0,0,0,0,0,0,0,0,0,0,-1.9269,-1.9268,0,-1.9205,-1.9204,-1.9203,-1.9234,-1.9236,-1.9238,-1.9239,-1.9167,-1.9164,-1.9161,0,0,0,0,0,0,0,0,0,0,0,0,0,-1.9409,-1.9406,-1.9269,-1.9268,-1.9267,-1.9205,-1.9204,-1.9203,-1.9234,-1.9236,-1.9238,-1.924,-1.9169,-1.9165,-1.916,0,0,0,0,0,0,0,0,0,0,0,0,0,-1.9346,-1.9405,-1.9269,-1.9275,-1.9275,-1.9205,-1.9204,-1.9203,-1.9234,-1.9236,-1.9239,-1.9241,-1.917,-1.9165,-1.916,-1.9078,0,0,-1.9144,-1.9142,0,0,0,0,0,0,0,0,-1.935,-1.9341,-1.9275,-1.9275,-1.9274,-1.923,-1.9227,-1.9161,-1.9233,-1.9249,-1.9239,-1.9242,-1.9186,-1.918,-1.9162,-1.9075,-1.9071,-1.9143,-1.914,-1.9138,-1.9137,0,0,0,0,0,0,0,-1.9354,-1.9344,-1.9243,-1.9274,-1.9274,-1.9278,-1.9272,-1.9215,-1.9204,-1.9248,-1.925,-1.9242,-1.9186,-1.9167,-1.916,-1.907,-1.9144,-1.9139,-1.9136,-1.9134,-1.8905,-1.8902,0,0,0,0,0,0,-1.9359,-1.9348,-1.9245,-1.9241,-1.9319,-1.9274,-1.9267,-1.9242,-1.9205,-1.9202,-1.924,-1.9244,-1.9174,-1.9166,-1.9158,-1.9054,-1.9138,-1.9133,-1.913,-1.8908,-1.8905,-1.8901,0,0,0,0,0,0,-1.9362,-1.935,-1.9248,-1.9295,-1.9282,-1.9269,-1.924,-1.9239,-1.922,-1.9199,-1.9197,-1.9223,-1.9176,-1.9165,-1.9096,-1.9052,-1.9131,-1.9126,-1.8912,-1.8907,-1.8903,-1.8849,0,0,0,0,0,0,-1.9366,-1.9351,-1.9322,-1.9294,-1.928,-1.919,-1.9238,-1.9236,-1.9212,-1.9216,-1.9182,-1.9179,-1.9177,-1.9104,-1.9091,-1.9046,-1.9122,-1.8915,-1.891,-1.8904,-1.8854,-1.8843,-1.8834,0,0,0,0,0,-1.9371,-1.9309,-1.932,-1.9308,-1.9243,-1.9187,-1.9179,-1.918,-1.9208,-1.9176,-1.9163,-1.918,-1.906,-1.9097,-1.9083,-1.9036,-1.8918,-1.8911,-1.8905,-1.8859,-1.8845,-1.8834,0,0,0,0,0,0,-1.9331,-1.9306,-1.9318,-1.9246,-1.9218,-1.9193,-1.9153,-1.9166,-1.9129,-1.9134,-1.9135,-1.9127,-1.9054,-1.9039,-1.908,-1.8951,-1.8993,-1.8983,-1.8963,-1.895,-1.894,-1.8942,-1.9118,0,0,0,0,0,-1.9314,-1.9273,-1.9252,-1.919,-1.9176,-1.9167,-1.9143,-1.9146,-1.9117,-1.9105,-1.9086,-1.9055,-1.901,-1.898,-1.8938,-1.8854,-1.8843,-1.8814,-1.8804,-1.8795,-1.8785,-1.8733,-1.8717,-1.888,-1.888,-1.888,0,0,-1.9277,-1.9259,-1.9232,-1.9182,-1.9161,-1.9114,-1.9157,-1.9108,-1.9071,-1.9097,-1.9029,-1.9014,-1.8979,-1.8901,-1.8865,-1.8886,-1.8738,-1.8787,-1.878,-1.8774,-1.8724,-1.8709,-1.8695,-1.8875,-1.8876,-1.8877,0,0,-1.9186,-1.9171,-1.9114,-1.9093,-1.9061,-1.9055,-1.9041,-1.9013,-1.9004,-1.8937,-1.8953,-1.8909,-1.8834,-1.8806,-1.8782,-1.8677,-1.8689,-1.8664,-1.8607,-1.8556,-1.8543,-1.8531,-1.8487,-1.8472,-1.8655,-1.8655,-1.8654,0,-1.9144,-1.9077,-1.9084,-1.9031,-1.9005,-1.9028,-1.8968,-1.8946,-1.8901,-1.8881,-1.8906,-1.8807,-1.8786,-1.8698,-1.8672,-1.8655,-1.8634,-1.8665,-1.8545,-1.8533,-1.8523,-1.848,-1.8465,-1.8651,-1.8652,-1.8652,-1.8652,0,-1.9024,-1.8977,-1.8935,-1.8891,-1.8862,-1.8806,-1.88,-1.8769,-1.8774,-1.8764,-1.8692,-1.8668,-1.8618,-1.8598,-1.8604,-1.8509,-1.8522,-1.8546,-1.8587,-1.8503,-1.8463,-1.8448,-1.8646,-1.8647,-1.8648,-1.8649,0,0,-1.8903,-1.8863,-1.8847,-1.8825,-1.879,-1.8752,-1.8696,-1.8649,-1.8619,-1.8587,-1.8535,-1.8469,-1.849,-1.8462,-1.8464,-1.8421,-1.833,-1.8449,-1.8448,-1.8422,-1.8217,-1.8195,-1.8177,-1.8341,-1.8338,-1.8335,-1.8218,0,-1.8805,-1.8707,-1.871,-1.8617,-1.857,-1.859,-1.854,-1.8511,-1.85,-1.8456,-1.8443,-1.8393,-1.8428,-1.841,-1.8368,-1.8351,-1.8288,-1.836,-1.8286,-1.8284,-1.8289,-1.8157,-1.8134,-1.8025,-1.8203,-1.8201,-1.8199,0,-1.8677,-1.864,-1.8543,-1.8511,-1.8491,-1.8446,-1.84,-1.836,-1.8326,-1.832,-1.8289,-1.8296,-1.8234,-1.8281,-1.8191,-1.8239,-1.821,-1.8197,-1.8192,-1.818,-1.8232,-1.8135,-1.799,-1.7971,-1.8176,-1.8177,-1.8179,0,-1.859,-1.8518,-1.8448,-1.843,-1.8393,-1.8359,-1.8342,-1.8311,-1.828,-1.824,-1.8219,-1.8172,-1.8144,-1.8105,-1.8097,-1.8134,-1.8005,-1.8053,-1.7993,-1.7993,-1.7961,-1.7962,-1.7802,-1.7953,-1.7953,-1.7953,-1.7954,0,-1.8477,-1.8414,-1.8408,-1.8365,-1.8294,-1.8297,-1.8226,-1.8211,-1.8183,-1.8133,-1.8149,-1.8102,-1.8098,-1.8048,-1.8043,-1.7965,-1.7955,-1.7944,-1.7942,-1.7939,-1.7939,-1.7915,-1.792,-1.7949,-1.795,-1.7951,-1.7951,0,-1.8366,-1.8361,-1.8285,-1.8256,-1.8247,-1.8195,-1.8168,-1.8124,-1.8115,-1.8052,-1.8037,-1.8021,-1.7963,-1.7953,-1.7885,-1.7881,-1.7786,-1.7795,-1.7797,-1.7796,-1.7734,-1.7737,-1.7548,-1.752,-1.7695,-1.7694,-1.7692,0,-1.8291,-1.8243,-1.8209,-1.8177,-1.8158,-1.8109,-1.8077,-1.8077,-1.8043,-1.7999,-1.7959,-1.7903,-1.7857,-1.7763,-1.7742,-1.7688,-1.7692,-1.763,-1.7684,-1.768,-1.7682,-1.7682,-1.7674,-1.7617,-1.7615,-1.7614,-1.7613,0,-1.8155,-1.8154,-1.811,-1.8063,-1.8025,-1.7988,-1.7953,-1.7926,-1.7921,-1.7881,-1.7822,-1.7787,-1.7717,-1.7658,-1.7604,-1.7582,-1.7593,-1.7597,-1.7578,-1.7571,-1.7571,-1.7563,-1.7761,-1.7599,-1.7601,-1.7602,-1.7602,-1.7603,-1.8055,-1.8012,-1.7979,-1.7928,-1.7901,-1.7867,-1.7823,-1.7808,-1.7759,-1.7702,-1.7706,-1.7639,-1.7601,-1.753,-1.7504,-1.7449,-1.7469,-1.7445,-1.7437,-1.7429,-1.742,-1.7586,-1.744,-1.7441,-1.7441,-1.7441,-1.7442,0,-1.7915,-1.7894,-1.7848,-1.7797,-1.7755,-1.7774,-1.7735,-1.7697,-1.7639,-1.7604,-1.7559,-1.7488,-1.743,-1.7405,-1.7347,-1.7307,-1.731,-1.7291,-1.7291,-1.7284,-1.7409,-1.7427,-1.7289,-1.7289,-1.7289,-1.7289,-1.7289,-1.7289,-1.7836,-1.7761,-1.7755,-1.7665,-1.7645,-1.7581,-1.7556,-1.7522,-1.7494,-1.7415,-1.7367,-1.7353,-1.7319,-1.7259,-1.7205,-1.7198,-1.7173,-1.715,-1.7145,-1.7261,-1.7276,-1.7291,-1.7307,-1.7146,-1.7146,-1.7023,-1.7022,-1.7021]}]]